When you browse on this site, cookies collect data to enhance your experience and personalize the content and advertising you see.
Visit our Privacy Policy to learn more. By continuing to use the site, you agree to this use of cookies and data.
  • în România
  • Lista ţărilor
  • Pe 7 zile
  • Temperatura apei
  • Hartă satelitară
  • Meteo pe hartă
  • Widget-uri
  • user-avatar
    Intrare

    Meteo pe oră la Arnara

    Astăzi, 25 Aprilie, Joi

    Timp Temperatura Precipitaţii Vânt Presiune Umiditate
    00:00 +16°C° 0 mm 2 m/s 746 mmHg 62%
    01:00 +15°C° 0 mm 2 m/s 746 mmHg 57%
    02:00 +15°C° 0 mm 2 m/s 746 mmHg 55%
    03:00 +15°C° 0 mm 2 m/s 746 mmHg 53%
    04:00 +15°C° 0 mm 2 m/s 746 mmHg 50%
    05:00 +17°C° 0 mm 2 m/s 746 mmHg 52%
    06:00 +18°C° 0 mm 2 m/s 746 mmHg 54%
    07:00 +20°C° 0 mm 2 m/s 746 mmHg 54%
    08:00 +23°C° 0 mm 2 m/s 746 mmHg 47%
    09:00 +26°C° 0 mm 1 m/s 746 mmHg 40%
    10:00 +28°C° 0 mm 1 m/s 746 mmHg 33%
    11:00 +28°C° 0 mm 2 m/s 746 mmHg 33%
    12:00 +29°C° 0 mm 2 m/s 746 mmHg 33%
    13:00 +29°C° 0 mm 2 m/s 746 mmHg 33%
    14:00 +29°C° 0 mm 2 m/s 746 mmHg 35%
    15:00 +28°C° 0 mm 2 m/s 746 mmHg 37%
    16:00 +28°C° 0 mm 2 m/s 746 mmHg 39%
    17:00 +25°C° 0 mm 1 m/s 745 mmHg 46%
    18:00 +23°C° 0 mm 1 m/s 745 mmHg 53%
    19:00 +18°C° 0 mm 0 m/s 745 mmHg 61%
    20:00 +20°C° 0 mm 1 m/s 745 mmHg 60%
    21:00 +19°C° 0 mm 1 m/s 746 mmHg 59%
    22:00 +19°C° 0 mm 1 m/s 746 mmHg 58%
    23:00 +19°C° 0 mm 1 m/s 746 mmHg 57%

    Mâine, 26 Aprilie, Vineri

    Timp Temperatura Precipitaţii Vânt Presiune Umiditate
    00:00 +18°C° 0 mm 1 m/s 746 mmHg 55%
    01:00 +18°C° 0 mm 1 m/s 745 mmHg 54%
    02:00 +18°C° 0 mm 1 m/s 745 mmHg 54%
    03:00 +16°C° 0 mm 1 m/s 745 mmHg 54%
    04:00 +16°C° 0 mm 1 m/s 745 mmHg 54%
    05:00 +18°C° 0 mm 1 m/s 745 mmHg 55%
    06:00 +19°C° 0 mm 1 m/s 745 mmHg 56%
    07:00 +20°C° 0 mm 1 m/s 745 mmHg 57%
    08:00 +22°C° 0 mm 1 m/s 745 mmHg 54%
    09:00 +23°C° 0 mm 1 m/s 746 mmHg 52%
    10:00 +24°C° 0 mm 2 m/s 746 mmHg 49%
    11:00 +25°C° 0 mm 2 m/s 746 mmHg 48%
    12:00 +25°C° 0 mm 2 m/s 746 mmHg 48%
    13:00 +26°C° 0 mm 2 m/s 746 mmHg 47%
    14:00 +24°C° 0.1 mm 2 m/s 746 mmHg 52%
    15:00 +22°C° 0.1 mm 3 m/s 745 mmHg 57%
    16:00 +21°C° 0.1 mm 3 m/s 745 mmHg 61%
    17:00 +20°C° 0.1 mm 2 m/s 745 mmHg 66%
    18:00 +18°C° 0.1 mm 2 m/s 745 mmHg 71%
    19:00 +16°C° 0.1 mm 2 m/s 745 mmHg 76%
    20:00 +15°C° 0 mm 2 m/s 746 mmHg 75%
    21:00 +14°C° 0 mm 2 m/s 746 mmHg 73%
    22:00 +13°C° 0 mm 2 m/s 746 mmHg 71%
    23:00 +12°C° 0 mm 2 m/s 746 mmHg 72%

    Poimâine, 27 Aprilie, Sâmbătă

    Timp Temperatura Precipitaţii Vânt Presiune Umiditate
    00:00 +11°C° 0 mm 1 m/s 746 mmHg 73%
    01:00 +11°C° 0 mm 1 m/s 746 mmHg 74%
    02:00 +10°C° 0 mm 1 m/s 746 mmHg 76%
    03:00 +10°C° 0 mm 1 m/s 746 mmHg 78%
    04:00 +10°C° 0 mm 1 m/s 746 mmHg 80%
    05:00 +11°C° 0 mm 1 m/s 746 mmHg 75%
    06:00 +12°C° 0 mm 1 m/s 746 mmHg 70%
    07:00 +14°C° 0 mm 1 m/s 746 mmHg 65%
    08:00 +15°C° 0 mm 1 m/s 746 mmHg 60%
    09:00 +18°C° 0 mm 1 m/s 746 mmHg 54%
    10:00 +19°C° 0 mm 2 m/s 747 mmHg 49%
    11:00 +20°C° 0 mm 2 m/s 747 mmHg 47%
    12:00 +20°C° 0 mm 2 m/s 746 mmHg 46%
    13:00 +21°C° 0 mm 3 m/s 746 mmHg 44%
    14:00 +21°C° 0 mm 3 m/s 746 mmHg 46%
    15:00 +21°C° 0 mm 3 m/s 746 mmHg 49%
    16:00 +20°C° 0 mm 3 m/s 745 mmHg 51%
    17:00 +18°C° 0 mm 2 m/s 745 mmHg 61%
    18:00 +16°C° 0 mm 2 m/s 746 mmHg 70%
    19:00 +14°C° 0 mm 1 m/s 746 mmHg 80%
    20:00 +13°C° 0 mm 1 m/s 746 mmHg 83%
    21:00 +12°C° 0 mm 1 m/s 746 mmHg 86%
    22:00 +10°C° 0 mm 0 m/s 746 mmHg 89%
    23:00 +10°C° 0 mm 0 m/s 746 mmHg 90%

    28 Aprilie, Duminică

    Timp Temperatura Precipitaţii Vânt Presiune Umiditate
    00:00 +11°C° 0 mm 1 m/s 746 mmHg 91%
    01:00 +11°C° 0 mm 1 m/s 746 mmHg 92%
    02:00 +10°C° 0 mm 1 m/s 745 mmHg 93%
    03:00 +10°C° 0 mm 1 m/s 745 mmHg 93%
    04:00 +10°C° 0 mm 1 m/s 745 mmHg 94%
    05:00 +11°C° 0 mm 1 m/s 745 mmHg 91%
    06:00 +12°C° 0 mm 1 m/s 745 mmHg 88%
    07:00 +13°C° 0 mm 2 m/s 745 mmHg 85%
    08:00 +14°C° 0 mm 2 m/s 744 mmHg 81%
    09:00 +14°C° 0 mm 3 m/s 744 mmHg 77%
    10:00 +16°C° 0 mm 3 m/s 744 mmHg 73%
    11:00 +16°C° 0 mm 3 m/s 744 mmHg 71%
    12:00 +17°C° 0 mm 3 m/s 743 mmHg 68%
    13:00 +17°C° 0 mm 4 m/s 743 mmHg 66%
    14:00 +17°C° 0 mm 3 m/s 743 mmHg 64%
    15:00 +17°C° 0 mm 3 m/s 742 mmHg 62%
    16:00 +17°C° 0 mm 3 m/s 742 mmHg 61%
    17:00 +14°C° 0 mm 3 m/s 742 mmHg 68%
    18:00 +14°C° 0 mm 2 m/s 742 mmHg 75%
    19:00 +12°C° 0 mm 2 m/s 742 mmHg 83%
    20:00 +10°C° 0 mm 2 m/s 742 mmHg 85%
    21:00 +11°C° 0 mm 1 m/s 742 mmHg 87%
    22:00 +10°C° 0 mm 1 m/s 743 mmHg 89%
    23:00 +10°C° 0 mm 1 m/s 743 mmHg 89%

    29 Aprilie, Luni

    Timp Temperatura Precipitaţii Vânt Presiune Umiditate
    00:00 +10°C° 0 mm 1 m/s 742 mmHg 89%
    01:00 +10°C° 0 mm 1 m/s 742 mmHg 90%
    02:00 +9°C° 0 mm 1 m/s 742 mmHg 90%
    03:00 +9°C° 0 mm 1 m/s 742 mmHg 90%
    04:00 +9°C° 0 mm 1 m/s 742 mmHg 90%
    05:00 +10°C° 0 mm 1 m/s 742 mmHg 87%
    06:00 +11°C° 0 mm 1 m/s 742 mmHg 84%
    07:00 +12°C° 0 mm 1 m/s 742 mmHg 80%
    08:00 +14°C° 0.1 mm 1 m/s 742 mmHg 75%
    09:00 +15°C° 0.1 mm 2 m/s 742 mmHg 70%
    10:00 +17°C° 0.1 mm 2 m/s 742 mmHg 65%
    11:00 +17°C° 0.7 mm 2 m/s 742 mmHg 66%
    12:00 +17°C° 0.7 mm 2 m/s 742 mmHg 67%
    13:00 +17°C° 0.7 mm 2 m/s 742 mmHg 68%
    14:00 +17°C° 0.6 mm 3 m/s 742 mmHg 67%
    15:00 +17°C° 0.6 mm 3 m/s 742 mmHg 65%
    16:00 +17°C° 0.6 mm 3 m/s 742 mmHg 64%
    17:00 +16°C° 0.1 mm 2 m/s 742 mmHg 68%
    18:00 +14°C° 0.1 mm 2 m/s 742 mmHg 73%
    19:00 +13°C° 0.1 mm 1 m/s 742 mmHg 77%
    20:00 +12°C° 0 mm 1 m/s 743 mmHg 79%
    21:00 +11°C° 0 mm 1 m/s 743 mmHg 81%
    22:00 +10°C° 0 mm 1 m/s 744 mmHg 83%
    23:00 +10°C° 0 mm 1 m/s 744 mmHg 83%

    30 Aprilie, Marţi

    Timp Temperatura Precipitaţii Vânt Presiune Umiditate
    00:00 +10°C° 0 mm 1 m/s 744 mmHg 84%
    01:00 +9°C° 0 mm 1 m/s 744 mmHg 84%
    02:00 +9°C° 0 mm 1 m/s 743 mmHg 83%
    03:00 +9°C° 0 mm 1 m/s 743 mmHg 82%
    04:00 +8°C° 0 mm 1 m/s 743 mmHg 80%
    05:00 +10°C° 0 mm 1 m/s 743 mmHg 76%
    06:00 +11°C° 0 mm 1 m/s 744 mmHg 71%
    07:00 +12°C° 0 mm 0 m/s 744 mmHg 66%
    08:00 +14°C° 0 mm 1 m/s 744 mmHg 61%
    09:00 +16°C° 0 mm 1 m/s 744 mmHg 56%
    10:00 +18°C° 0 mm 2 m/s 744 mmHg 51%
    11:00 +18°C° 0 mm 2 m/s 744 mmHg 50%
    12:00 +19°C° 0 mm 2 m/s 744 mmHg 49%
    13:00 +20°C° 0 mm 3 m/s 743 mmHg 48%
    14:00 +19°C° 0 mm 3 m/s 743 mmHg 51%
    15:00 +19°C° 0 mm 3 m/s 743 mmHg 53%
    16:00 +18°C° 0 mm 2 m/s 743 mmHg 56%
    17:00 +17°C° 0 mm 2 m/s 743 mmHg 61%
    18:00 +15°C° 0 mm 1 m/s 743 mmHg 67%
    19:00 +13°C° 0 mm 1 m/s 742 mmHg 72%
    20:00 +13°C° 0 mm 1 m/s 743 mmHg 74%
    21:00 +11°C° 0 mm 0 m/s 743 mmHg 76%
    22:00 +11°C° 0 mm 0 m/s 743 mmHg 79%
    23:00 +10°C° 0 mm 0 m/s 743 mmHg 80%
    Arată mai mult